Location: Peebles
(55.6412°N, 3.1714°W)
Time: 11:16:49
(UTC+01:00)

deb NNS O-4 - Pass Details

Date: 05 July 2022
Orbit: 977 x 1074 km, 89.9° (Epoch: 15 August)

Event Time Altitude Azimuth Distance (km) Brightness Sun altitude
Exits shadow 01:38:18 - 150° (SSE) 3,112 ? -11.4°
Reaches altitude 10° 01:38:53 10° 149° (SSE) 2,902 ? -11.4°
Maximum altitude 01:45:12 48° 77° (ENE) 1,368 ? -11.3°
Drops below altitude 10° 01:51:27 10° 6° (N) 2,875 ? -11.2°
Sets 01:54:04 0° 1° (N) 3,819 ? -11.2°
